Location: Unspecified
(50.7693°N, 0.0000°E)
Time: 07:42:07
(UTC+00:00)

Transit 2A - Pass Details

Date: 14 August 2020
Orbit: 591 x 967 km, 66.7° (Epoch: 20 September)

Event Time Altitude Azimuth Distance (km) Brightness Sun altitude
Rises 02:01:06 0° 320° (NW) 3,659 9.8 -20.2°
Reaches altitude 10° 02:03:55 10° 329° (NNW) 2,717 9.2 -20.0°
Maximum altitude 02:09:47 36° 35° (NE) 1,477 8.1 -19.5°
Drops below altitude 10° 02:15:28 10° 100° (E) 2,629 9.0 -19.0°
Sets 02:18:09 0° 109° (ESE) 3,525 9.6 -18.7°
